Location: Fontevrault
(47.1823°N, 0.0493°E)
Time: 17:01:35
(UTC+00:00)

deb Agena D - Visible Passes

Search period start: 11 August 2022 00:00
Search period end: 21 August 2022 00:00
Orbit: 729 x 827 km, 100.0° (Epoch: 10 August)

Date Brightness Start Highest point End Pass type
(mag) Time Alt. Az. Time Alt. Az. Time Alt. Az.
11 Aug ? 00:38:04 10° NNE 00:43:06 45° E 00:43:12 45° ESE visible
11 Aug ? 02:17:30 10° N 02:21:59 30° WNW 02:23:40 25° W visible
12 Aug ? 00:05:38 10° NE 00:09:40 24° E 00:09:40 24° E visible
12 Aug ? 01:44:06 10° N 01:49:12 54° WNW 01:50:08 48° WSW visible
12 Aug ? 03:26:40 10° NW 03:27:12 10° NW 03:27:44 10° NW visible
12 Aug ? 23:34:22 10° ENE 23:36:08 12° E 23:36:08 12° E visible
13 Aug ? 01:10:58 10° NNE 01:16:15 82° ESE 01:16:36 77° SSE visible
13 Aug ? 02:51:16 10° NNW 02:54:43 18° NW 02:57:04 14° W visible
14 Aug ? 00:38:08 10° NNE 00:43:03 43° E 00:43:03 43° E visible
14 Aug ? 02:17:29 10° N 02:22:04 31° WNW 02:23:31 27° W visible
15 Aug ? 00:05:43 10° NE 00:09:31 23° E 00:09:31 23° E visible
15 Aug ? 01:44:06 10° N 01:49:15 56° WNW 01:49:59 52° W visible
15 Aug ? 03:26:09 10° NW 03:27:16 11° NW 03:28:25 10° WNW visible
15 Aug ? 23:34:34 10° ENE 23:35:58 12° E 23:35:58 12° E visible
16 Aug ? 01:10:59 10° NNE 01:16:18 79° ESE 01:16:26 78° SE visible
16 Aug ? 02:51:12 10° NNW 02:54:47 19° NW 02:56:53 15° W visible
17 Aug ? 00:38:09 10° NNE 00:42:52 41° E 00:42:52 41° E visible
17 Aug ? 02:17:27 10° N 02:22:07 32° WNW 02:23:20 29° W visible
18 Aug ? 00:05:45 10° NE 00:09:19 22° E 00:09:19 22° E visible
18 Aug ? 01:44:05 10° N 01:49:17 59° WNW 01:49:47 56° W visible
18 Aug ? 03:25:50 10° NNW 03:27:19 11° NW 03:28:49 10° WNW visible
18 Aug ? 23:34:46 10° ENE 23:35:45 11° E 23:35:45 11° E visible
19 Aug ? 01:10:58 10° NNE 01:16:13 76° E 01:16:13 76° E visible
19 Aug ? 02:51:07 10° NNW 02:54:48 20° NW 02:56:40 16° W visible
20 Aug ? 00:38:09 10° NNE 00:42:39 39° E 00:42:39 39° E visible
20 Aug ? 02:17:23 10° N 02:22:07 34° WNW 02:23:06 31° W visible
